Погода в Шадринске

Хотите узнать прогноз погоды в Шадринске? Тогда Вам сюда: Погода в Шадринске

Поиск расширенной информации на нашем сайте:

Полезная информация:

Новости сайта



02.01.2020
Опубликован Долгосрочный прогноз погоды по городам России и ближнего зарубежья на январь 2020 года.
Карты: Прогноз на январь и февраль 2020 года, Сравнение прогнозируемой аномалии приземной температуры воздуха на январь 2020 года по разным моделям.




Погода в Шадринске - сегодня

Время (UTC), дата Ветер
(°,м/с) 
Видим.   Явления Облачность Т
(°С)
Тd
(°С)
f(%) Тe
(°С)
Pmin
(гПа)
dP
(гПа)
Po
(мм)
O2
(г/м3)
Тmin Tmax R s Состояние
почвы
21 22.10.20 280 (З) 10 км    6/4 600 м кучево-дожд., верхняя 
[Cb cap|Ci sp]
-3.1 -7.1 74 -4  1011.5  0.9  750  306           
00 23.10.20 300 (СЗ) 4000 м  слаб. снег  10/6 300 м средняя 
[Frnb|As trans]
-3.6 -5.7 85 -7  1013.2  1.6  751  307           
03 23.10.20 280 (З) 10 км  в посл. час ливневой снег  10/8 600 м кучево-дожд., верхняя 
[Cb cap|Ci sp]
-5 -8.1 79 -6  1015.7  2.4  753  310  -5    0.3  сухой снег
50-90% 
06 23.10.20 320 (СЗ) 10 км  {ливн. осадки, снег}  9/9 600 м кучево-дожд. 
[Cb cap]
-3 -8.3 67 -6  1017.3  1.6  754  308  -5.2         
09 23.10.20 320 (СЗ) 10 км  в посл. час ливневой снег  8/8 600 м кучево-дожд. 
[Cb cap]
-2.6 -10 57 -5  1018.8  1.5  756  308           
12 23.10.20 270 (З) 10 км  {ливн. осадки}  8/6 600 м кучево-дожд., средняя 
[Cb cap|Ac trans]
-3.1 -8.4 67 -5  1020.3  1.5  757  309           
15 23.10.20 220 (ЮЗ) 10 км    ясно 
-6.9 -10.1 78 -7  1021.8  1.3  758  314    -1.8  0.0     
18 23.10.20 тихо ()   10 км    ясно 
-8.3 -11.6 77 -8  1022.4  0.5  758  316           
21 23.10.20 210 (ЮЗ) 10 км    ясно 
-9.7 -12.1 83 -10  1022.2  -0.3  758  318           
00 24.10.20 тихо ()   10 км    ясно 
-8.6 -11.4 80 -9  1021.2  -0.8  757  316           
03 24.10.20 140 (ЮВ) 10 км    6/3 600 м верхняя 
[Sc|Ci sp]
-7.5 -11.3 74 -9  1019.2  -1.9  756  314  -10      мокрый или
старый снег
50-90% 
06 24.10.20 140 (ЮВ) 10 км    10/10 600 м кучево-дожд. 
[Cb cap]
-3 -8.1 68 -5  1016.4  -2.6  754  308           
09 24.10.20 160 (Ю) 5{10}  4000 м  слаб. снег  10/8 300 м средняя 
[Frnb|As op]
-0.3 -3.2 81 -3  1012.9  -3.4  751  303           
12 24.10.20 150 (ЮВ) 4{10}  4000 м  слаб. снег  10/8 300 м средняя 
[Frnb|As op]
+0.1 -2.1 85 -2  1010.2  -2.6  749  302           
15 24.10.20 150 (ЮВ) 4000 м  слаб. снег  10/8 300 м средняя 
[Frnb|As op]
+0.1 -1.2 91 -2  1007.8  -2.4  747  301    +0.2     
18 24.10.20 170 (Ю) 4000 м  слаб. снег  10/8 300 м средняя 
[Frnb|As op]
+0.7 -0.8 90 -1  1005.6  -2.1  746  300           
21 24.10.20 190 (Ю) 10 км  {снег}  10/10 600 м кучево-дожд. 
[Cb cap]
+1 -0.3 91 +2  1004.5  -1.1  745  299           
00 25.10.20 270 (З) 4000 м  слаб. морось{снег}  10/10 300 м 
[St]
+1.4 +0.1 91 +2  1004.4  0.1  745  299           
03 25.10.20 260 (З) 4000 м  дымка{морось}  10/10 300 м 
[St]
+3 +1.6 91 +2  1005.6  1.2  746  297  +0.1    мокрый или
старый снег
50-90% 
06 25.10.20 260 (З) 4000 м  дымка{морось}  10/10 300 м 
[St]
+5.3 +3.9 91 +5  1006.6  1.1  747  295           
09 25.10.20 250 (З) 10 км  {ливн. осадки}  10/10 600 м кучево-дожд. 
[Cb cap]
+9 +5.3 78 +8  1006.9  0.4  747  291           
12 25.10.20 240 (ЮЗ) 10 км  {ливн. осадки}  10/8 600 м кучево-дожд., средняя, верхняя 
[Cb cap|Ac trans|Ci sp]
+8 +3.8 75 +8  1007.5  0.6  748  292           
15 25.10.20 290 (З) 10 км    10/10 600 м кучево-дожд. 
[Cb cap]
+6.5 +2.8 77 +6  1007.9  0.3  748  294    +10  0.0     
18 25.10.20 тихо ()   10 км    10/10 600 м кучево-дожд. 
[Cb cap]
+3.8 +1.9 87 +4  1008  748  297           
21 25.10.20 040 (СВ) 10 км    10/10 600 м кучево-дожд. 
[Cb cap]
+3.2 +1.5 89 +4  1006.4  -1.6  747  297           
Время (UTC), дата Ветер
(°,м/с) 
Видим.   Явления Облачность Т
(°С)
Тd
(°С)
f(%) Тe
(°С)
Pmin
(гПа)
dP
(гПа)
Po
(мм)
O2
(г/м3)
Тmin Tmax R s Состояние
почвы

Для получения пояснительной информации подведите курсор к названию столбца.

ПОГОДА в Шадринске - архив

Всё, что Вы хотите узнать о погоде в Шадринске - удобно и подробно!

Выберите нужную дату (начиная с 1 января 2019* года) и нажмите кнопку "Найти".
Будут отображены архивные сводки погоды по пункту Шадринск, начиная с указанной даты.


Отображать данные в формате CSV (для использования в таблицах Excel)


Внимание! Наш архив погоды предназначен исключительно для личного некоммерческого использования в познавательных целях. Если Вам необходимы официальные справки о состоянии погоды (для производственных, юридических, коммерческих и т.п. целей), обращайтесь в органы Росгидромета.

*Примечание: данная дата относится к архиву по метеостанциям СССР (Россия, СНГ, Балтия).
Архив по метеостанциям Зарубежной Европы и Азии (кроме Китая) хранится 10 дней, по другим регионам земного шара (Китай, Африка, Америка, Австралия, Океания) - 1 день.

Шадринск - район местоположения метеостанции


Название, широта, долгота, высота метеостанции:
Шадринск 56.1°ш. 63.6°д. 89 м над ур. моря [Российская Федерация]

Дополнительная информация

В oтличие oт бoльшинства пoгoдных сайтoв мы публикуем пoдрoбную метеoинфoрмацию в детальнoм прoфессиoнальнoм фoрмате.

Характеристики температуры и влажнoсти вoздуха измеряются на высoте 2 м в тени вдали oт зданий и деревьев.
Скoрoсть ветра измеряется на высoте 10 м (на урoвне рoста челoвека скoрoсть ветра ниже в 1.5-2 раза). Если метеoстанция нахoдится в гoрoде или в лесу, тo скoрoсть ветра занижена на 2-4 м/с пo сравнению с oткрытым местoм. Скoрoсть ветра над акватoриями крупных рек и oзёр, а также на вершинах хoлмoв на 2-5 м/с выше, чем в oбычных услoвиях.
Атмoсфернoе давление в разных тoчках местнoсти мoжет значительнo oтличаться oт давления на метеoстанции, в зависимoсти oт услoвий рельефа (при пoдъёме на 10 м давление пoнижается примернo на 1 мм рт.ст.).